Location: eljas
(40.1958°N, 6.8661°W)
Time: 15:07:57
(UTC+02:00)

Amateur Radio Satellites - All Passes

Search period start: 30 August 2016 14:37
Search period end: 31 August 2016 14:37
Location: eljas, 40.1958°N, 6.8661°W

Satellite Date Start Highest point End Downlink Frequencies (MHz)
Time Altitude Azimuth
DUCHIFAT 1 30 Aug 14:39:10 14:41:01 13° 269° (W) 14:42:52 145.980
PCSat 30 Aug 14:45:07 14:49:01 20° 314° (NW) 14:52:56 145.827
CUBEBUG 1 30 Aug 15:09:22 15:13:02 26° 292° (WNW) 15:16:42 437.445
SPROUT 30 Aug 15:13:13 15:17:23 53° 287° (WNW) 15:21:31 437.525
VELOX 1 30 Aug 15:14:34 15:18:24 29° 291° (WNW) 15:22:14 145.980
TISAT 1 30 Aug 15:22:04 15:25:59 37° 98° (E) 15:29:51 437.305
DX 1 30 Aug 15:22:04 15:26:02 34° 290° (WNW) 15:30:00 434.975-435.025
Cosmos 2499 30 Aug 15:23:19 15:30:00 29° 289° (WNW) 15:36:21 435.465 / 435.565
50 SAT 30 Aug 15:32:31 15:34:13 13° 294° (WNW) 15:35:55 437.505
JAS-2 30 Aug 15:35:45 15:37:05 11° 273° (W) 15:38:26 435.910
ITAMSAT 1 30 Aug 15:38:05 15:42:17 26° 66° (ENE) 15:46:28 435.822/435.867
ITUPSAT 1 30 Aug 15:45:32 15:47:38 13° 91° (E) 15:49:44 437.325
Gurwin Techsat 1B 30 Aug 15:49:31 15:54:50 79° 257° (WSW) 16:00:10 435.225
Oscar 19 30 Aug 15:56:35 16:01:07 31° 264° (W) 16:05:42 437.125/150
O/OREOS (USA 219) 30 Aug 15:56:52 16:00:59 35° 298° (WNW) 16:05:11 437.305
UKube-1 30 Aug 15:57:46 16:00:51 19° 294° (WNW) 16:03:55 .
AO-7 30 Aug 16:04:12 16:11:36 37° 60° (ENE) 16:19:00 29.400- 29.500
AO-85 30 Aug 16:06:48 16:10:43 39° 245° (WSW) 16:14:23 145.980
ISS 30 Aug 16:09:19 16:12:36 87° 226° (SW) 16:15:53 145.825
SWISSCUBE 30 Aug 16:15:18 16:19:30 30° 97° (E) 16:23:40 437.505
GONETS M04 30 Aug 16:20:20 16:23:32 12° 303° (WNW) 16:26:45
BEESAT 30 Aug 16:31:53 16:36:22 40° 99° (E) 16:40:50 436.000
TISAT 1 30 Aug 16:58:29 17:01:20 18° 294° (WNW) 17:04:10 437.305
ITAMSAT 1 30 Aug 17:16:43 17:21:32 39° 262° (W) 17:26:22 435.822/435.867
ITUPSAT 1 30 Aug 17:21:09 17:25:53 65° 286° (WNW) 17:30:36 437.325
KKS-1 30 Aug 17:30:37 17:33:38 18° 93° (E) 17:36:37 437.445
BRITE-PL 30 Aug 17:47:24 17:48:20 10° 57° (ENE) 17:49:15 437.365/2234.400
HORYU 2 30 Aug 17:49:58 17:53:30 24° 67° (ENE) 17:57:03 437.375
SWISSCUBE 30 Aug 17:53:09 17:57:11 28° 292° (WNW) 18:01:12 437.505
AO-7 30 Aug 17:56:01 18:04:05 52° 258° (WSW) 18:12:11 29.400- 29.500
MOZHAYETS 4 30 Aug 17:56:34 18:00:59 47° 99° (E) 18:05:24
STARS 30 Aug 17:58:31 18:01:23 17° 93° (E) 18:04:13 437.465
Cosmos 2491 30 Aug 18:01:16 18:05:30 15° 75° (ENE) 18:09:45 435.465 / 435.565
BEESAT 3 30 Aug 18:09:36 18:10:48 11° 40° (NE) 18:12:00 437.485
BEESAT 30 Aug 18:10:18 18:13:53 21° 295° (WNW) 18:17:27 436.000
YUBILEINY 30 Aug 18:15:05 18:23:12 40° 73° (ENE) 18:31:13 435.215
Cubesat XI-IV 30 Aug 18:30:13 18:32:58 14° 60° (ENE) 18:35:43 437.490
NOAA 15 30 Aug 18:31:35 18:35:10 19° 62° (ENE) 18:38:46 137.62
Cosmos 2504 30 Aug 18:34:22 18:38:16 15° 63° (ENE) 18:42:09 435.465 / 435.565
CUTE-I 30 Aug 18:40:15 18:43:43 18° 62° (ENE) 18:47:12 437.470
GOMX 1 30 Aug 18:43:28 18:46:55 18° 63° (ENE) 18:50:29 467.674
KKS-1 30 Aug 19:06:10 19:10:22 41° 289° (WNW) 19:14:31 437.445
BRITE-PL 30 Aug 19:20:50 19:25:45 81° 76° (ENE) 19:31:07 437.365/2234.400
CUBESAT XI-V 30 Aug 19:24:35 19:29:11 51° 100° (E) 19:33:46 437.345
HORYU 2 30 Aug 19:25:55 19:29:54 31° 263° (W) 19:33:53 437.375
BEESAT 2 30 Aug 19:33:17 19:36:59 34° 52° (NE) 19:40:40 435.950
STARS 30 Aug 19:33:47 19:37:55 41° 289° (WNW) 19:42:01 437.465
MOZHAYETS 4 30 Aug 19:34:47 19:37:47 17° 295° (WNW) 19:40:46
NOAA 18 30 Aug 19:43:27 19:48:53 61° 72° (ENE) 19:54:20 137.9125
BEESAT 3 30 Aug 19:45:04 19:49:04 90° 208° (SSW) 19:53:00 437.485
LilacSat-2 30 Aug 19:47:33 19:51:22 67° 76° (ENE) 19:55:10 437.200
Cosmos 2491 30 Aug 19:52:07 20:00:50 81° 94° (E) 20:09:37 435.465 / 435.565
Cubesat XI-IV 30 Aug 20:07:01 20:12:22 78° 257° (WSW) 20:17:43 437.490
NOAA 15 30 Aug 20:09:20 20:14:28 57° 259° (W) 20:19:41 137.62
DOVE 4 30 Aug 20:10:33 20:15:36 54° 73° (ENE) 20:20:47 437.250
YUBILEINY 30 Aug 20:11:54 20:20:00 44° 273° (W) 20:28:02 435.215
CUTE-I 30 Aug 20:18:00 20:23:16 61° 259° (WSW) 20:28:33 437.470
GOMX 1 30 Aug 20:19:20 20:24:24 61° 261° (W) 20:29:46 467.674
STRAND 1 30 Aug 20:23:39 20:24:24 10° 89° (E) 20:25:08 437.568
CANX-2 30 Aug 20:24:41 20:27:05 15° 65° (ENE) 20:29:28 2200.000
Cosmos 2504 30 Aug 20:25:29 20:32:43 88° 262° (W) 20:39:55 435.465 / 435.565
CUTE 1.7 + AOD 2 30 Aug 20:30:10 20:32:33 15° 65° (ENE) 20:34:56 437.475
CINEMA 3 30 Aug 20:30:12 20:34:13 25° 68° (ENE) 20:38:11 145.822/145.860
HO-68 30 Aug 20:38:25 20:44:55 39° 64° (ENE) 20:51:25 435.675
CUBESAT XI-V 30 Aug 21:03:09 21:06:08 17° 296° (WNW) 21:09:07 437.345
BRITE-PL 30 Aug 21:03:32 21:04:59 11° 274° (W) 21:06:27 437.365/2234.400
BEESAT 2 30 Aug 21:11:36 21:14:35 20° 248° (WSW) 21:17:33 435.950
NOAA 18 30 Aug 21:26:19 21:29:55 18° 268° (W) 21:33:31 137.9125
Oscar 11 30 Aug 21:30:22 21:31:25 11° 62° (ENE) 21:32:29 145.826/435.025
SEEDS 30 Aug 21:30:30 21:34:29 48° 74° (ENE) 21:38:30 437.485
AIST 1 30 Aug 21:37:12 21:41:30 50° 79° (E) 21:45:44
FUNcube-1 30 Aug 21:40:52 21:43:05 14° 65° (ENE) 21:45:16 145.935
PCSat 30 Aug 21:48:12 21:53:28 48° 56° (NE) 21:58:41 145.827
DOVE 4 30 Aug 21:49:59 21:53:35 19° 269° (W) 21:57:15 437.250
Cosmos 2491 30 Aug 21:52:28 21:58:43 21° 296° (WNW) 22:05:02 435.465 / 435.565
AAUSAT CUBESAT 2 30 Aug 21:52:36 21:56:31 46° 73° (ENE) 22:00:28 437.432
UWE-3 30 Aug 21:54:41 21:58:43 32° 71° (ENE) 22:02:41 435.000/436.395/437.385
CANX-2 30 Aug 21:58:31 22:02:32 46° 261° (W) 22:06:36 2200.000
STRAND 1 30 Aug 21:59:03 22:04:11 85° 284° (WNW) 22:09:18 437.568
ZACube-1 30 Aug 22:02:33 22:06:10 25° 69° (ENE) 22:09:43 437.345
CUBEBUG 2 30 Aug 22:03:07 22:07:43 61° 74° (ENE) 22:12:12 437.445
COMPASS 1 30 Aug 22:03:38 22:07:44 81° 77° (ENE) 22:11:53 437.405
CUTE 1.7 + AOD 2 30 Aug 22:03:58 22:07:59 46° 261° (W) 22:12:03 437.475
CINEMA 3 30 Aug 22:06:28 22:11:07 38° 263° (W) 22:15:44 145.822/145.860
AIST 2 30 Aug 22:10:51 22:15:02 66° 56° (NE) 22:19:11 435.215
Cosmos 2504 30 Aug 22:21:57 22:24:53 13° 282° (WNW) 22:27:48 435.465 / 435.565
HO-68 30 Aug 22:25:50 22:32:32 41° 262° (W) 22:39:16 435.675
PRISM 30 Aug 22:31:39 22:34:58 22° 95° (E) 22:38:15 437.425
GONETS M04 30 Aug 22:33:52 22:36:53 12° 56° (ENE) 22:39:52
Oscar 11 30 Aug 23:02:40 23:06:57 71° 258° (WSW) 23:11:15 145.826/435.025
DELFI C3 30 Aug 23:04:34 23:08:19 46° 73° (ENE) 23:12:08 145.870
SEEDS 30 Aug 23:08:29 23:10:27 13° 269° (W) 23:12:25 437.485
FUNcube-1 30 Aug 23:14:31 23:18:52 56° 260° (W) 23:23:09 145.935
AIST 1 30 Aug 23:16:35 23:18:34 13° 276° (W) 23:20:34
Cosmos 2499 30 Aug 23:22:03 23:26:00 15° 64° (ENE) 23:29:56 435.465 / 435.565
AAUSAT CUBESAT 2 30 Aug 23:30:12 23:32:14 13° 269° (W) 23:34:16 437.432
UWE-3 30 Aug 23:31:35 23:35:11 23° 265° (W) 23:38:44 435.000/436.395/437.385
PCSat 30 Aug 23:32:20 23:36:31 23° 253° (WSW) 23:40:40 145.827
AUBIESAT-1 30 Aug 23:33:21 23:36:34 19° 60° (ENE) 23:39:44 437.475
ZACube-1 30 Aug 23:38:29 23:42:20 28° 264° (W) 23:46:07 437.345
M-CUBED/EXP-1 PRIME 30 Aug 23:41:02 23:44:57 27° 63° (ENE) 23:48:52 437.505
STRAND 1 30 Aug 23:41:25 23:42:32 11° 302° (WNW) 23:43:39 437.568
CUBEBUG 2 30 Aug 23:42:33 23:44:38 13° 269° (W) 23:46:42 437.445
TIGRISAT 30 Aug 23:49:42 23:52:20 16° 92° (E) 23:54:57 435.000
AIST 2 30 Aug 23:51:40 23:52:57 11° 252° (WSW) 23:54:13 435.215
ESTCUBE 1 30 Aug 23:54:27 23:57:04 15° 64° (ENE) 23:59:40 437.505/2401.250
HUMSAT D 30 Aug 23:55:51 00:00:00 89° 258° (WSW) 00:04:08 437.325/437.525
PRISM 31 Aug 00:06:38 00:10:15 29° 291° (WNW) 00:13:52 437.425
UNISAT 6 31 Aug 00:18:23 00:22:20 36° 98° (E) 00:26:15 437.425
GONETS M04 31 Aug 00:26:55 00:35:45 64° 79° (E) 00:44:28
O/OREOS (USA 219) 31 Aug 00:27:49 00:32:08 38° 63° (ENE) 00:36:24 437.305
CUBEBUG 1 31 Aug 00:28:42 00:32:07 22° 67° (ENE) 00:35:33 437.445
50 SAT 31 Aug 00:35:07 00:37:27 17° 68° (ENE) 00:39:48 437.505
VELOX 1 31 Aug 00:35:16 00:38:41 22° 66° (ENE) 00:42:06 145.980
SO-50 31 Aug 00:40:23 00:45:14 77° 121° (ESE) 00:50:04 436.795
DELFI C3 31 Aug 00:41:52 00:43:26 12° 269° (W) 00:45:00 145.870
DX 1 31 Aug 00:41:57 00:44:51 18° 65° (ENE) 00:47:46 434.975-435.025
DANDE 31 Aug 00:51:23 00:51:54 10° 87° (E) 00:52:26 436.750
QB50P2 31 Aug 00:54:45 00:56:40 13° 91° (E) 00:58:36 145.880/145.840
ANTELSAT 31 Aug 00:54:59 00:59:17 85° 284° (WNW) 01:03:31 437.575/2403.000
JAS-2 31 Aug 00:56:27 00:59:39 13° 88° (E) 01:02:57 435.910
POLYITAN 1 31 Aug 00:57:13 00:59:11 13° 91° (E) 01:01:08 437.675
CUSAT 1 31 Aug 01:02:28 01:05:28 80° 275° (W) 01:09:21 437.405
NANOSAT C BR1 31 Aug 01:02:28 01:04:41 14° 92° (E) 01:06:53 145.865
AUBIESAT-1 31 Aug 01:06:07 01:10:37 50° 256° (WSW) 01:15:07 437.475
Cosmos 2499 31 Aug 01:12:59 01:20:04 86° 262° (W) 01:27:17 435.465 / 435.565
M-CUBED/EXP-1 PRIME 31 Aug 01:15:01 01:19:17 34° 258° (WSW) 01:23:33 437.505
UKube-1 31 Aug 01:15:02 01:18:48 30° 69° (ENE) 01:22:36 .
AISAT 31 Aug 01:23:22 01:27:48 76° 75° (ENE) 01:32:18 437.250
TIGRISAT 31 Aug 01:25:12 01:29:13 40° 288° (WNW) 01:33:11 435.000
ESTCUBE 1 31 Aug 01:29:04 01:33:25 52° 260° (W) 01:37:49 437.505/2401.250
BUGSAT 1 31 Aug 01:30:28 01:30:35 10° 90° (E) 01:30:42 437.445
RS-15 31 Aug 01:31:55 01:41:52 36° 105° (ESE) 01:52:13 29.354- 29.394
QB50P1 31 Aug 01:47:00 01:51:06 48° 100° (E) 01:55:09 145.935-145.965
UNISAT 6 31 Aug 01:55:46 01:58:47 19° 294° (WNW) 02:01:47 437.425
POPSAT HIP 1 31 Aug 01:57:17 02:01:29 64° 102° (ESE) 02:05:38 437.405
PHONESAT 2.4 31 Aug 01:58:10 02:00:43 25° 155° (SSE) 02:03:17 2401.200-2431.200
CUBEBUG 1 31 Aug 02:04:14 02:08:11 33° 263° (W) 02:12:12 437.445
SPROUT 31 Aug 02:05:35 02:09:54 78° 258° (WSW) 02:14:14 437.525
50 SAT 31 Aug 02:07:42 02:10:48 28° 263° (W) 02:13:57 437.505
O/OREOS (USA 219) 31 Aug 02:07:52 02:11:15 21° 259° (W) 02:14:38 437.305
VELOX 1 31 Aug 02:10:53 02:14:55 34° 262° (W) 02:19:00 145.980
TISAT 1 31 Aug 02:13:12 02:16:47 27° 69° (ENE) 02:20:22 437.305
DX 1 31 Aug 02:16:33 02:20:41 42° 261° (W) 02:24:53 434.975-435.025
DUCHIFAT 1 31 Aug 02:20:58 02:25:10 76° 284° (WNW) 02:29:19 145.980
SO-50 31 Aug 02:23:07 02:26:16 17° 319° (NW) 02:29:24 436.795
GONETS M04 31 Aug 02:24:50 02:31:50 27° 278° (W) 02:38:50
QB50P2 31 Aug 02:28:41 02:32:46 50° 287° (WNW) 02:36:49 145.880/145.840
POLYITAN 1 31 Aug 02:31:11 02:35:16 49° 287° (WNW) 02:39:18 437.675
Oscar 19 31 Aug 02:31:56 02:33:07 11° 89° (E) 02:34:18 437.125/150
DANDE 31 Aug 02:32:41 02:34:24 15° 290° (WNW) 02:36:14 436.750
NANOSAT C BR1 31 Aug 02:36:38 02:40:40 46° 287° (WNW) 02:44:39 145.865
JAS-2 31 Aug 02:38:21 02:45:24 78° 103° (ESE) 02:53:06 435.910
UKube-1 31 Aug 02:51:23 02:54:50 23° 265° (W) 02:58:18 .
ITUPSAT 1 31 Aug 02:51:49 02:54:32 15° 63° (ENE) 02:57:16 437.325
BUGSAT 1 31 Aug 03:02:17 03:06:21 60° 285° (WNW) 03:10:20 437.445
Cosmos 2499 31 Aug 03:09:27 03:12:00 12° 282° (WNW) 03:14:34 435.465 / 435.565
SWISSCUBE 31 Aug 03:21:11 03:25:25 33° 69° (ENE) 03:29:39 437.505
QB50P1 31 Aug 03:24:10 03:26:27 14° 296° (WNW) 03:28:44 145.935-145.965
PHONESAT 2.4 31 Aug 03:33:51 03:36:51 82° 170° (S) 03:39:51 2401.200-2431.200
POPSAT HIP 1 31 Aug 03:35:20 03:36:42 11° 297° (WNW) 03:38:04 437.405
BEESAT 31 Aug 03:37:36 03:42:06 44° 71° (ENE) 03:46:36 436.000
RS-15 31 Aug 03:41:58 03:53:29 67° 307° (NW) 04:05:40 29.354- 29.394
TISAT 1 31 Aug 03:48:51 03:52:22 25° 264° (W) 03:55:53 437.305
Gurwin Techsat 1B 31 Aug 04:06:25 04:11:29 43° 99° (E) 04:16:31 435.225
Oscar 19 31 Aug 04:07:49 04:13:03 84° 286° (WNW) 04:18:15 437.125/150
JAS-2 31 Aug 04:24:47 04:29:48 22° 298° (WNW) 04:35:08 435.910
ITUPSAT 1 31 Aug 04:27:11 04:31:52 59° 259° (W) 04:36:34 437.325
KKS-1 31 Aug 04:28:33 04:31:22 17° 64° (ENE) 04:34:11 437.445
STARS 31 Aug 04:55:07 04:57:43 15° 64° (ENE) 05:00:19 437.465
MOZHAYETS 4 31 Aug 04:57:46 05:02:03 41° 72° (ENE) 05:06:20
SWISSCUBE 31 Aug 04:59:21 05:03:13 25° 265° (W) 05:07:07 437.505
PHONESAT 2.4 31 Aug 05:10:12 05:13:13 90° 295° (WNW) 05:16:13 2401.200-2431.200
BEESAT 31 Aug 05:16:44 05:20:04 19° 267° (W) 05:23:25 436.000
ITAMSAT 1 31 Aug 05:29:32 05:34:45 77° 103° (ESE) 05:39:55 435.822/435.867
Gurwin Techsat 1B 31 Aug 05:46:58 05:51:09 24° 295° (WNW) 05:55:19 435.225
Oscar 19 31 Aug 05:50:11 05:51:32 11° 302° (WNW) 05:52:52 437.125/150
AO-7 31 Aug 05:57:51 06:06:02 58° 103° (ESE) 06:14:08 29.400- 29.500
RS-15 31 Aug 05:59:21 06:08:56 27° 337° (NNW) 06:18:49 29.354- 29.394
KKS-1 31 Aug 06:03:12 06:07:32 48° 260° (W) 06:11:53 437.445
Cosmos 2491 31 Aug 06:03:27 06:11:37 40° 73° (ENE) 06:19:44 435.465 / 435.565
AO-85 31 Aug 06:18:46 06:24:05 73° 119° (ESE) 06:29:07 145.980
CUBESAT XI-V 31 Aug 06:27:11 06:31:34 46° 72° (ENE) 06:36:00 437.345
STARS 31 Aug 06:29:19 06:33:38 51° 260° (W) 06:37:59 437.465
MOZHAYETS 4 31 Aug 06:36:14 06:39:23 18° 267° (W) 06:42:31
PHONESAT 2.4 31 Aug 06:46:41 06:49:24 32° 203° (SSW) 06:52:07 2401.200-2431.200
ITAMSAT 1 31 Aug 07:11:00 07:13:32 14° 300° (WNW) 07:16:04 435.822/435.867
Cosmos 2504 31 Aug 07:14:16 07:17:55 14° 78° (ENE) 07:21:28 435.465 / 435.565
YUBILEINY 31 Aug 07:15:01 07:23:17 47° 88° (E) 07:31:34 435.215
HORYU 2 31 Aug 07:16:46 07:21:03 48° 100° (E) 07:25:18 437.375
BRITE-PL 31 Aug 07:26:28 07:31:30 32° 94° (E) 07:36:21 437.365/2234.400
STRAND 1 31 Aug 07:37:44 07:40:48 16° 62° (ENE) 07:43:51 437.568
AO-7 31 Aug 07:51:14 07:58:22 33° 302° (WNW) 08:05:27 29.400- 29.500
Cosmos 2491 31 Aug 08:00:16 08:08:30 45° 272° (W) 08:16:42 435.465 / 435.565
AO-85 31 Aug 08:01:21 08:05:00 19° 316° (NW) 08:08:31 145.980
CUBESAT XI-V 31 Aug 08:06:13 08:09:11 17° 268° (W) 08:12:10 437.345
NOAA 18 31 Aug 08:06:38 08:11:10 26° 95° (E) 08:15:39 137.9125
DOVE 4 31 Aug 08:12:03 08:14:51 15° 89° (E) 08:17:33 437.250
RS-15 31 Aug 08:18:19 08:27:23 23° 13° (NNE) 08:36:30 29.354- 29.394
GOMX 1 31 Aug 08:22:06 08:27:15 46° 97° (E) 08:32:05 467.674
NOAA 15 31 Aug 08:24:51 08:30:06 57° 101° (ESE) 08:35:19 137.62
Cubesat XI-IV 31 Aug 08:24:56 08:30:01 44° 99° (E) 08:35:04 437.490
CUTE-I 31 Aug 08:35:30 08:40:44 56° 101° (E) 08:45:57 437.470
ISS 31 Aug 08:48:37 08:51:40 37° 136° (SE) 08:54:45 145.825
HORYU 2 31 Aug 08:54:31 08:57:12 16° 296° (WNW) 08:59:54 437.375
LilacSat-2 31 Aug 08:55:34 08:59:20 71° 285° (WNW) 09:03:04 437.200
Cosmos 2504 31 Aug 09:01:43 09:10:07 81° 95° (E) 09:17:56 435.465 / 435.565
BRITE-PL 31 Aug 09:04:46 09:09:55 36° 291° (WNW) 09:14:54 437.365/2234.400
YUBILEINY 31 Aug 09:12:08 09:20:11 38° 288° (WNW) 09:28:16 435.215
SO-50 31 Aug 09:12:36 09:17:09 56° 55° (NE) 09:21:33 436.795
STRAND 1 31 Aug 09:14:23 09:19:26 63° 258° (WSW) 09:24:30 437.568
PRISM 31 Aug 09:21:20 09:23:49 16° 65° (ENE) 09:26:19 437.425
BEESAT 3 31 Aug 09:36:16 09:38:45 16° 111° (ESE) 09:41:17 437.485
CANX-2 31 Aug 09:44:04 09:47:48 29° 96° (E) 09:51:33 2200.000
NOAA 18 31 Aug 09:46:50 09:51:55 40° 292° (WNW) 09:56:58 137.9125
DOVE 4 31 Aug 09:48:06 09:52:58 55° 287° (WNW) 09:57:32 437.250
COMPASS 1 31 Aug 09:48:31 09:50:37 13° 91° (E) 09:52:42 437.405
CUTE 1.7 + AOD 2 31 Aug 09:49:25 09:53:09 29° 96° (E) 09:56:53 437.475
CUSAT 1 31 Aug 09:53:36 09:56:39 13° 64° (ENE) 09:59:50 437.405
HO-68 31 Aug 09:53:39 10:00:21 41° 98° (E) 10:07:00 435.675
CUBEBUG 2 31 Aug 09:56:51 09:58:20 12° 90° (E) 09:59:49 437.445
GOMX 1 31 Aug 10:00:52 10:04:55 22° 296° (WNW) 10:08:50 467.674
CINEMA 3 31 Aug 10:01:50 10:06:13 55° 99° (E) 10:10:22 145.822/145.860
Cubesat XI-IV 31 Aug 10:05:38 10:09:48 24° 295° (WNW) 10:13:56 437.490
NOAA 15 31 Aug 10:05:45 10:09:24 19° 298° (WNW) 10:13:03 137.62
AIST 1 31 Aug 10:06:00 10:09:48 30° 90° (E) 10:13:40
CUTE-I 31 Aug 10:16:41 10:20:20 19° 297° (WNW) 10:23:59 437.470
ISS 31 Aug 10:25:18 10:28:12 28° 334° (NNW) 10:31:05 145.825
RS-15 31 Aug 10:32:14 10:44:07 48° 45° (NE) 10:55:48 29.354- 29.394
TIGRISAT 31 Aug 10:48:10 10:50:49 15° 65° (ENE) 10:53:26 435.000
SEEDS 31 Aug 10:50:08 10:54:21 78° 284° (WNW) 10:58:34 437.485
Oscar 11 31 Aug 10:51:01 10:54:21 21° 94° (E) 10:57:40 145.826/435.025
SO-50 31 Aug 10:54:31 10:57:06 15° 251° (WSW) 10:59:39 436.795
PRISM 31 Aug 10:54:53 10:58:46 42° 261° (W) 11:02:43 437.425
Cosmos 2504 31 Aug 10:58:36 11:04:16 20° 293° (WNW) 11:09:43 435.465 / 435.565
BEESAT 2 31 Aug 11:01:39 11:05:35 78° 119° (ESE) 11:09:34 435.950
FUNcube-1 31 Aug 11:03:26 11:06:56 26° 96° (E) 11:10:25 145.935
AAUSAT CUBESAT 2 31 Aug 11:10:21 11:14:33 85° 280° (W) 11:18:44 437.432
BEESAT 3 31 Aug 11:12:24 11:16:06 40° 307° (NW) 11:19:50 437.485
UNISAT 6 31 Aug 11:16:27 11:20:29 32° 70° (ENE) 11:24:27 437.425
CANX-2 31 Aug 11:20:11 11:23:30 23° 292° (WNW) 11:26:50 2200.000
UWE-3 31 Aug 11:20:41 11:24:52 75° 102° (ESE) 11:28:59 435.000/436.395/437.385
COMPASS 1 31 Aug 11:22:23 11:26:25 47° 286° (WNW) 11:30:27 437.405
DANDE 31 Aug 11:23:41 11:28:31 25° 74° (ENE) 11:34:15 436.750
CUTE 1.7 + AOD 2 31 Aug 11:25:30 11:28:50 23° 292° (WNW) 11:32:10 437.475
ZACube-1 31 Aug 11:26:40 11:30:44 53° 100° (E) 11:34:47 437.345
CUBEBUG 2 31 Aug 11:31:13 11:35:19 53° 286° (WNW) 11:39:21 437.445
CUSAT 1 31 Aug 11:32:37 11:39:27 70° 79° (E) 11:47:22 437.405
GONETS M04 31 Aug 11:36:54 11:40:16 13° 74° (ENE) 11:43:39
CINEMA 3 31 Aug 11:40:36 11:42:48 14° 297° (WNW) 11:44:59 145.822/145.860
HUMSAT D 31 Aug 11:41:05 11:43:22 14° 92° (E) 11:45:39 437.325/437.525
HO-68 31 Aug 11:41:30 11:47:58 38° 296° (WNW) 11:54:25 435.675
AIST 1 31 Aug 11:44:04 11:47:25 21° 287° (WNW) 11:50:49
QB50P2 31 Aug 11:48:51 11:49:13 10° 62° (ENE) 11:49:35 145.880/145.840
POLYITAN 1 31 Aug 11:51:07 11:51:42 10° 62° (ENE) 11:52:18 437.675
ANTELSAT 31 Aug 11:52:38 11:57:13 78° 76° (ENE) 12:01:42 437.575/2403.000
NANOSAT C BR1 31 Aug 11:55:37 11:56:39 11° 62° (ENE) 11:57:42 145.865
Cosmos 2499 31 Aug 12:00:49 12:03:57 13° 78° (ENE) 12:07:01 435.465 / 435.565
ISS 31 Aug 12:04:08 12:05:31 12° 353° (N) 12:06:53 145.825
AIST 2 31 Aug 12:09:26 12:11:48 15° 110° (ESE) 12:14:12 435.215
DELFI C3 31 Aug 12:16:59 12:21:01 87° 103° (ESE) 12:25:02 145.870
TIGRISAT 31 Aug 12:22:36 12:27:05 53° 260° (W) 12:31:29 435.000
Oscar 11 31 Aug 12:26:41 12:30:30 32° 290° (WNW) 12:34:20 145.826/435.025
PCSat 31 Aug 12:29:08 12:34:19 49° 113° (ESE) 12:39:33 145.827
QB50P1 31 Aug 12:38:46 12:42:37 34° 71° (ENE) 12:46:29 145.935-145.965
FUNcube-1 31 Aug 12:39:46 12:43:05 24° 291° (WNW) 12:46:22 145.935
BEESAT 2 31 Aug 12:42:12 12:43:55 12° 319° (NW) 12:45:38 435.950
RS-15 31 Aug 12:45:02 12:56:59 58° 248° (WSW) 13:08:39 29.354- 29.394
POPSAT HIP 1 31 Aug 12:48:57 12:52:59 43° 72° (ENE) 12:57:03 437.405
JAS-2 31 Aug 12:52:01 12:56:24 27° 64° (ENE) 13:01:04 435.910
UNISAT 6 31 Aug 12:53:31 12:57:12 24° 265° (W) 13:00:51 437.425
M-CUBED/EXP-1 PRIME 31 Aug 12:56:15 12:58:44 16° 96° (E) 13:01:05 437.505
ZACube-1 31 Aug 13:04:45 13:06:34 13° 296° (WNW) 13:08:23 437.345
DANDE 31 Aug 13:05:31 13:11:19 56° 264° (W) 13:18:39 436.750
DUCHIFAT 1 31 Aug 13:11:46 13:16:00 71° 75° (ENE) 13:20:14 145.980
HUMSAT D 31 Aug 13:15:19 13:19:11 42° 287° (WNW) 13:23:03 437.325/437.525
AISAT 31 Aug 13:15:31 13:18:05 15° 92° (E) 13:20:37 437.250
CUSAT 1 31 Aug 13:15:46 13:21:04 23° 273° (W) 13:26:53 437.405
QB50P2 31 Aug 13:20:07 13:24:23 75° 257° (WSW) 13:28:40 145.880/145.840
ESTCUBE 1 31 Aug 13:22:06 13:26:13 33° 97° (E) 13:30:18 437.505/2401.250
POLYITAN 1 31 Aug 13:22:37 13:26:53 74° 258° (WSW) 13:31:10 437.675
GONETS M04 31 Aug 13:26:42 13:35:24 74° 94° (E) 13:44:12
NANOSAT C BR1 31 Aug 13:27:32 13:31:47 70° 258° (WSW) 13:36:03 145.865
50 SAT 31 Aug 13:36:19 13:39:11 21° 95° (E) 13:42:02 437.505
ISS 31 Aug 13:41:10 13:43:05 14° 14° (NNE) 13:44:59 145.825
AIST 2 31 Aug 13:45:55 13:49:53 47° 306° (NW) 13:53:54 435.215
Oscar 19 31 Aug 13:47:11 13:50:24 17° 62° (ENE) 13:53:39 437.125/150
Cosmos 2499 31 Aug 13:47:50 13:55:56 81° 95° (E) 14:03:26 435.465 / 435.565
BUGSAT 1 31 Aug 13:50:43 13:54:58 83° 76° (ENE) 13:59:14 437.445
CUBEBUG 1 31 Aug 13:52:51 13:57:08 46° 99° (E) 14:01:21 437.445
SPROUT 31 Aug 13:53:01 13:56:00 18° 93° (E) 13:58:58 437.525
VELOX 1 31 Aug 14:01:04 14:05:21 45° 99° (E) 14:09:36 145.980
DX 1 31 Aug 14:05:13 14:09:11 32° 97° (E) 14:13:06 434.975-435.025
PCSat 31 Aug 14:13:30 14:17:57 25° 311° (NW) 14:22:27 145.827
QB50P1 31 Aug 14:15:20 14:18:27 20° 266° (W) 14:21:36 145.935-145.965
AUBIESAT-1 31 Aug 14:20:24 14:24:16 55° 291° (WNW) 14:27:49 437.475
POPSAT HIP 1 31 Aug 14:26:24 14:28:58 15° 268° (W) 14:31:32 437.405
M-CUBED/EXP-1 PRIME 31 Aug 14:29:46 14:33:27 34° 295° (WNW) 14:36:49 437.505
